Tallevast, FL

9:15 PM EDT on September 25, 2016 (GMT -0400)
Sarasota-bradenton

Weather History for KSRQ - August, 2013

Change the Weather History Date:

Tuesday, August 27, 2013

  Actual Average Record
Temperature  
Mean Temperature 81 °F 82 °F  
Max Temperature 89 °F 90 °F 97 °F (1923)
Min Temperature 73 °F 75 °F 65 °F (1930)
Degree Days  
Heating Degree Days 0 0  
Month to date heating degree days 0 0  
Since 1 June heating degree days 0 0  
Since 1 July heating degree days 0 0  
Cooling Degree Days 16 17  
Month to date cooling degree days 501 459  
Year to date cooling degree days 2431 2221  
Since 1 June cooling degree days 1563 1470  
Growing Degree Days 31 (Base 50)    
Moisture  
Dew Point 73 °F    
Average Humidity 79    
Maximum Humidity 94    
Minimum Humidity 56    
Precipitation  
Precipitation 0.19 in 0.29 in 3.69 in (2002)
Month to date precipitation 9.80 7.98  
Year to date precipitation 37.09 37.17  
Sea Level Pressure  
Sea Level Pressure 30.01 in    
Wind  
Wind Speed 5 mph (East)    
Max Wind Speed 17 mph    
Max Gust Speed 21 mph    
Visibility 10 miles    
Events Rain , Thunderstorm    
T = Trace of Precipitation, MM = Missing Value Source: NWS Daily Summary

Daily Weather History Graph

Daily Weather History Graph

Search for Another Location

Airport or City:

Trip Planner

Search our weather history database for the weather conditions in past years. The results will help you decide how hot, cold, wet, or windy it might be!

Date:

Astronomy

Aug. 27, 2013 Rise Set
Actual Time 7:07 AM EDT 7:55 PM EDT
Civil Twilight 6:43 AM EDT 8:19 PM EDT
Nautical Twilight 6:15 AM EDT 8:47 PM EDT
Astronomical Twilight 5:46 AM EDT 9:16 PM EDT
Moon No Moon Rise 1:24 PM EDT (8/27)
Length of Visible Light 13h 36m
Length of Day
12h 48m
Waning Gibbous, 57% of the Moon is Illuminated
Aug 27
Waning Gibbous
Aug 28
Last Quarter
Sep 5
New
Sep 12
First Quarter
Sep 19
Full

Hourly Weather History & Observations

Time (EDT) Temp. Heat Index Dew Point Humidity Pressure Visibility Wind Dir Wind Speed Gust Speed Precip Events Conditions
12:53 AM 75.0 °F - 72.0 °F 90% 30.03 in 10.0 mi East 6.9 mph - N/A   Clear
1:53 AM 75.0 °F - 73.0 °F 94% 30.02 in 10.0 mi East 6.9 mph - N/A   Clear
2:53 AM 75.0 °F - 72.0 °F 90% 30.01 in 10.0 mi ENE 6.9 mph - N/A   Clear
3:53 AM 73.9 °F - 72.0 °F 93% 30.00 in 10.0 mi Calm Calm - N/A   Clear
4:53 AM 73.9 °F - 72.0 °F 93% 30.00 in 10.0 mi NE 3.5 mph - N/A   Clear
5:53 AM 73.9 °F - 72.0 °F 93% 30.00 in 10.0 mi ENE 4.6 mph - N/A   Clear
6:53 AM 73.9 °F - 72.0 °F 93% 30.02 in 10.0 mi Calm Calm - N/A   Clear
7:53 AM 75.0 °F - 73.0 °F 94% 30.02 in 10.0 mi ENE 5.8 mph - N/A   Clear
8:53 AM 79.0 °F - 73.9 °F 84% 30.03 in 10.0 mi ENE 8.1 mph - N/A   Clear
9:53 AM - - - N/A% 30.04 in 10.0 mi North - - N/A   Partly Cloudy
10:30 AM 82.4 °F 88.2 °F 73.4 °F 74% 30.04 in 10.0 mi East 6.9 mph - N/A   Scattered Clouds
10:50 AM 84.2 °F 90.9 °F 73.4 °F 70% 30.05 in 10.0 mi East 6.9 mph - N/A   Mostly Cloudy
10:53 AM 84.9 °F 91.4 °F 73.0 °F 67% 30.04 in 10.0 mi East 8.1 mph - N/A   Scattered Clouds
11:53 AM 87.1 °F 93.6 °F 72.0 °F 61% 30.03 in 10.0 mi East 9.2 mph - N/A   Scattered Clouds
12:53 PM 89.1 °F 96.0 °F 72.0 °F 57% 30.02 in 10.0 mi ESE 11.5 mph - N/A   Mostly Cloudy
1:53 PM 87.1 °F 93.6 °F 72.0 °F 61% 30.00 in 10.0 mi East 8.1 mph - 0.00 in Rain Light Rain
2:46 PM 82.4 °F 88.2 °F 73.4 °F 74% 29.99 in 10.0 mi North 6.9 mph - 0.07 in Rain , Thunderstorm Light Thunderstorms and Rain
2:53 PM 82.0 °F 88.6 °F 75.0 °F 79% 29.98 in 10.0 mi NE 5.8 mph - 0.07 in Rain , Thunderstorm Light Thunderstorms and Rain
3:46 PM 82.4 °F 88.2 °F 73.4 °F 74% 29.99 in 10.0 mi Variable 3.5 mph - 0.00 in   Overcast
3:53 PM 82.9 °F 88.8 °F 73.0 °F 72% 29.99 in 10.0 mi Calm Calm - 0.00 in   Overcast
4:10 PM 87.8 °F 95.6 °F 73.4 °F 62% 29.97 in 10.0 mi NE 4.6 mph - N/A Thunderstorm Overcast
4:40 PM 82.4 °F 88.2 °F 73.4 °F 74% 29.98 in 10.0 mi SSW 9.2 mph - N/A   Mostly Cloudy
4:53 PM 81.0 °F 86.2 °F 73.9 °F 79% 29.98 in 10.0 mi SW 11.5 mph 20.7 mph N/A   Mostly Cloudy
5:19 PM 80.6 °F 86.2 °F 75.2 °F 84% 30.00 in 1.8 mi South 8.1 mph - 0.10 in Rain Heavy Rain
5:28 PM 80.6 °F 85.4 °F 73.4 °F 79% 30.00 in 4.0 mi South 10.4 mph - 0.12 in Rain Light Rain
5:53 PM 80.1 °F 84.2 °F 73.0 °F 79% 29.99 in 10.0 mi SW 4.6 mph - 0.12 in   Mostly Cloudy
6:53 PM 80.1 °F 84.5 °F 73.9 °F 81% 29.99 in 10.0 mi SW 4.6 mph - N/A   Scattered Clouds
7:53 PM 80.1 °F 83.6 °F 71.1 °F 74% 29.99 in 10.0 mi Calm Calm - N/A   Clear
8:53 PM 77.0 °F - 71.1 °F 82% 30.00 in 10.0 mi ESE 4.6 mph - N/A   Clear
9:53 PM 77.0 °F - 70.0 °F 79% 30.02 in 10.0 mi East 4.6 mph - N/A   Clear
10:53 PM 75.9 °F - 72.0 °F 87% 30.03 in 10.0 mi Calm Calm - N/A   Clear
11:53 PM 75.9 °F - 73.0 °F 91% 30.03 in 10.0 mi NE 4.6 mph - N/A   Partly Cloudy